KMGWKCKB

Guest
Details From KMGW - Morgantown Muni Walter L Bill Hart Fld
To KCKB - Harrison Marion Rgnl
Flight Number -
Tags Generated
Created
Modified
Stats Distance 26 nm / 48 km
Max Altitude 0 ft / 0 m
Waypoints 2
Social Downloads 0
Likes 0
Share VATSIM

Download

Looking for another format? Having issues loading an existing format? Contact us
Advertisement - Login to hide

Notes

Generated

Route

KMGW KCKB

ID Type Via Altitude Latitude Longitude Leg Dist Tot Dist Heading (true) Name
O KMGW APT - 0 ft / 0 m 39.63892˚ -79.91747˚ - 0 nm - MORGANTOWN MUNI WALTER L BILL HART FLD
O KCKB APT - 0 ft / 0 m 39.28779˚ -80.23288˚ 25 nm 25 nm 215° / 215° -

Altitude Profile

Advertisement - Login to hide

KMGW

Details ICAO KMGW (MGW)
Name MORGANTOWN MUNI WALTER L BILL HART FLD
Region United States
Timezone America/New_York (UTC-4.0)
Stats Elevation 1,248 ft / 380 m (AMSL)
Location 39.642606° -79.915774°
Runways 2
Magnetic Variation 9.196° W

METAR

KMGW 220220Z 18004KT 10SM FEW017 SCT023 21/18 A3013 RMK AO2 LTG DSNT E T02060183

Decode

TAF

TAF KMGW 212320Z 2200/2224 07003KT P6SM BKN250 FM221100 19005KT P6SM -RA OVC035 FM221600 22010G20KT 6SM -RA VCTS OVC025CB

Decode

Departure Runways

ID Width Length Bearing (true) Bearing (mag) Surface Threshold Offset Overrun Length
05 75 ft / 23 m 2,768 ft / 844 m 44.75° 53.95° Asphalt 0 ft / 0 m 0 ft / 0 m
18 150 ft / 46 m 5,207 ft / 1,587 m 172.42° 181.62° Asphalt 0 ft / 0 m 0 ft / 0 m
23 75 ft / 23 m 2,768 ft / 844 m 224.75° 233.95° Asphalt 0 ft / 0 m 0 ft / 0 m
36 150 ft / 46 m 5,207 ft / 1,587 m 352.42° 1.62° Asphalt 0 ft / 0 m 0 ft / 0 m

KCKB

Details ICAO KCKB (CKB)
Name HARRISON MARION RGNL
Region United States
Timezone America/New_York (UTC-4.0)
Stats Elevation 1,217 ft / 371 m (AMSL)
Location 39.296642° -80.228080°
Runways 1
Magnetic Variation 8.920° W

METAR

KCKB 220153Z 16008KT 10SM OVC120 20/16 A3010 RMK AO2 RAE28 SLP179 P0001 T02000161

Decode

TAF

KCKB 220241Z 2203/2224 17003KT P6SM BKN100 FM221100 20003KT P6SM BKN040 FM222000 22006KT P6SM SHRA VCTS BKN035CB

Decode

Destination Runways

ID Width Length Bearing (true) Bearing (mag) Surface Threshold Offset Overrun Length
03 151 ft / 46 m 7,008 ft / 2,136 m 22.75° 31.67° Asphalt 0 ft / 0 m 0 ft / 0 m
21 151 ft / 46 m 7,008 ft / 2,136 m 202.75° 211.67° Asphalt 0 ft / 0 m 0 ft / 0 m

Approach Navaids

Runway Type Ident Frequency Range Bearing (true) Bearing (mag) Slope Elevation
21 Localiser ICKB 109.30 MHz 18 nm / 33 km 202.74° 211.66° - 1,173 ft / 358 m (AMSL)
21 Glidescope ICKB 109.30 MHz 10 nm / 19 km 202.75° 211.67° 3.00° 1,208 ft / 368 m (AMSL)

Popular Alternatives